Tracking 19817 objects as of 19-Aug-2019
HD Live streaming from Space Station
objects crossing your sky now

COSMOS 2251 DEB

Track COSMOS 2251 DEB now!
10-day predictions


NORAD ID: 36369
Int'l Code: 1993-036AYW
Perigee: 724.7 km
Apogee: 761.8 km
Inclination: 74.0 °
Period: 99.5 minutes
Semi major axis: 7114 km
RCS: 0.0099 m2 (small)
Launch date: June 16, 1993
Source: Commonwealth of Independent States (former USSR) (CIS)
Launch site: PLESETSK MISSILE AND SPACE COMPLEX (PKMTR)

Note: This is SATELLITE DEBRIS
aabbcc
Your satellite tracking list
Your tracking list is empty




NASA's NSSDC Master Catalog

Two Line Element Set (TLE):
1 36369U 93036AYW 19231.32779403  .00000295  00000-0  88446-4 0  9999
2 36369  74.0419 106.8052 0026081  52.8002 307.5532 14.46800663524756
Source of the keplerian elements: AFSPC